Regional Weather Roundup
Issued by NWS Huntsville, AL

Home | Current Version | Previous Version | Text Only | Print | Product List | Glossary On
Versions: 1 2 3 4 5 6 7 8 9 10 11 12 13 14 15 16 17 18 19 20 21 22 23 24 25 26 27 28 29 30 31 32 33 34 35 36 37 38 39 40 41 42 43 44 45 46 47 48 49 50
000
ASUS44 KHUN 300410
RWRHUN

WEATHER ROUNDUP FOR THE TENNESSEE VALLEY
NATIONAL WEATHER SERVICE HUNTSVILLE AL
1100 PM CDT WED JUL 29 2015

ALZ001>004-300500-
NORTHWEST ALABAMA

CITY           SKY/WX    TMP DP  RH WIND       PRES   REMARKS
COURTLAND HCN    N/A     77 N/A N/A CALM        N/A
BANKHEAD NF      N/A     75  74  98 CALM        N/A
RUSSELLVILLE     N/A     73 N/A N/A MISG        N/A
SHOALS AIRPORT CLEAR     78  75  90 CALM      30.04S
SHOALS TVA RES   N/A     75 N/A N/A MISG        N/A
$$

ALZ005>007-016-300500-
NORTH CENTRAL ALABAMA

CITY           SKY/WX    TMP DP  RH WIND       PRES   REMARKS
CULLMAN AG STN   N/A     77 N/A N/A CALM        N/A
DECATUR AP     PTCLDY    77  76  96 N3        30.03S
HUNTSVILLE AP  MOCLDY    79  75  87 NW7       30.03S
HUN NWS/UAH      N/A     81  74  81 SW2         N/A
MERIDIANVILLE  PTCLDY    77  72  83 CALM      30.03S
REDSTONE ARSN  PTCLDY    78  76  96 SW6       30.02S
VINEMONT AP    FAIR      75  73  91 NW3       30.06S
$$

ALZ008>010-300500-
NORTHEAST ALABAMA

CITY           SKY/WX    TMP DP  RH WIND       PRES   REMARKS
ALBERTVILLE    MOCLDY    77  77 100 CALM      30.03S
FORT PAYNE     MOCLDY    79  73  83 CALM      30.03R
SCOTTSBORO AP  MOCLDY    79  77  94 CALM      30.02S
SCOTTSBORO HCN   N/A     79 N/A N/A MISG        N/A
VALLEY HEAD      N/A     77 N/A N/A MISG        N/A
$$

TNZ076-096-097-300500-
SOUTHEASTERN MIDDLE TENNESSEE

CITY           SKY/WX    TMP DP  RH WIND       PRES   REMARKS
TULLAHOMA      CLEAR     81  75  83 CALM      30.07R
WINCHESTER     CLEAR     79  75  89 CALM      30.05R
$$

...SURROUNDING SITES...

CITY           SKY/WX    TMP DP  RH WIND       PRES   REMARKS
ATLANTA        MOCLDY    82  72  71 CALM      30.01R
ANNISTON       PTCLDY    80  75  84 CALM      30.01S
BIRMINGHAM     PTCLDY    78  76  93 CALM      30.04R
CHATTANOOGA    PTCLDY    82  73  74 N3        30.03R
DALTON         PTCLDY    79  77  94 NW5       30.02R
GADSDEN        MOCLDY    81  72  74 CALM      30.00F
GOLDEN TRNGL   MOCLDY    77  72  83 CALM      30.01S
HALEYVILLE     FAIR      75  75 100 CALM      30.07S
JACKSON TN     PTCLDY    83  74  74 N7        30.05R
MEMPHIS        PTCLDY    90  75  61 N9        30.03R HX 100
NASHVILLE      MOCLDY    82  72  71 NE9       30.05R
ROME           PTCLDY    79  75  87 CALM      30.01R
SAVANNAH       CLEAR     79  32  18 CALM      30.04R
TUPELO         CLEAR     78  74  87 CALM      30.02S
TUSCALOOSA     MOCLDY    76  74  93 CALM      30.01S
$$

...GULF COAST WEATHER...

CITY           SKY/WX    TMP DP  RH WIND       PRES   REMARKS
GULFPORT       CLOUDY    77  75  93 N3        30.00R
PASCAGOULA     MOCLDY    78  76  93 N3        30.00R
MOBILE         MOCLDY    78  77  96 N5        30.03R
GULF SHORES    CLOUDY    79  76  91 NW3       29.99R
PENSACOLA      MOCLDY    78  75  90 NW3       29.99R FOG
DESTIN         CLOUDY    84  76  76 CALM      29.98R HX  93
PANAMA CITY    CLOUDY    78  76  94 E2        29.99R
APPALACHICOLA  CLOUDY    82  76  81 SW16      29.99S
$$




USA.gov is the U.S. government's official web portal to all federal, state and local government web resources and services.